| time (UTC) | temp F | wind direction | speed knots | gust knots | rain 1hr in | rain 24hr in | rain mn in | humidity % | barometer mb |
| 20260504184504 | 72 | 267 | 5.2 | 14.8 | 0.00 | 0.01 | 0.00 | 54 | 1006.8 |
| 20260504184004 | 72 | 235 | 8.7 | 15.6 | 0.00 | 0.01 | 0.00 | 53 | 1006.8 |
| 20260504183505 | 72 | 233 | 7.0 | 15.6 | 0.00 | 0.01 | 0.00 | 53 | 1006.7 |
| 20260504183004 | 73 | 250 | 7.8 | 14.8 | 0.00 | 0.01 | 0.00 | 52 | 1006.5 |
| 20260504182505 | 73 | 285 | 6.1 | 12.2 | 0.00 | 0.01 | 0.00 | 53 | 1006.4 |
| 20260504182004 | 72 | 230 | 6.1 | 15.6 | 0.00 | 0.01 | 0.00 | 51 | 1006.4 |
| 20260504181503 | 72 | 191 | 9.6 | 17.4 | 0.00 | 0.01 | 0.00 | 53 | 1006.5 |
| 20260504181004 | 72 | 231 | 11.3 | 19.1 | 0.00 | 0.01 | 0.00 | 52 | 1006.4 |
| 20260504175505 | 72 | 238 | 7.8 | 15.6 | 0.00 | 0.01 | 0.00 | 53 | 1006.5 |
| 20260504175004 | 72 | 250 | 7.8 | 12.2 | 0.00 | 0.01 | 0.00 | 52 | 1006.5 |
| 20260504174504 | 72 | 254 | 6.1 | 14.8 | 0.00 | 0.01 | 0.00 | 53 | 1006.6 |
| 20260504174004 | 72 | 251 | 3.5 | 13.9 | 0.00 | 0.01 | 0.00 | 52 | 1006.6 |
| 20260504173504 | 72 | 252 | 4.3 | 12.2 | 0.00 | 0.01 | 0.00 | 54 | 1006.6 |
| 20260504173004 | 72 | 257 | 7.8 | 12.2 | 0.00 | 0.01 | 0.00 | 52 | 1006.7 |
| 20260504172504 | 72 | 232 | 5.2 | 11.3 | 0.00 | 0.01 | 0.00 | 53 | 1006.7 |
| 20260504172004 | 71 | 277 | 5.2 | 12.2 | 0.00 | 0.01 | 0.00 | 54 | 1006.8 |
| 20260504171504 | 71 | 231 | 5.2 | 12.2 | 0.00 | 0.01 | 0.00 | 54 | 1006.8 |
| 20260504171003 | 71 | 243 | 8.7 | 15.6 | 0.00 | 0.01 | 0.00 | 54 | 1006.9 |
| 20260504170504 | 71 | 226 | 6.1 | 11.3 | 0.00 | 0.01 | 0.00 | 55 | 1006.8 |
| 20260504151005 | 64 | 244 | 7.8 | 12.2 | 0.00 | 0.01 | 0.00 | 63 | 1008.1 |
| 20260504150505 | 64 | 227 | 6.1 | 13.0 | 0.00 | 0.01 | 0.00 | 62 | 1008.0 |
| 20260504141004 | 60 | 246 | 5.2 | 10.4 | 0.00 | 0.01 | 0.00 | 63 | 1008.4 |
| 20260504140505 | 60 | 220 | 5.2 | 12.2 | 0.00 | 0.01 | 0.00 | 64 | 1008.5 |
| 20260504130504 | 57 | 215 | 6.1 | 11.3 | 0.00 | 0.01 | 0.00 | 65 | 1009.0 |
| 20260504110504 | 51 | 228 | 2.6 | 5.2 | 0.00 | 0.01 | 0.00 | 69 | 1008.7 |
| 20260504100504 | 51 | 223 | 3.5 | 7.0 | 0.00 | 0.01 | 0.00 | 67 | 1009.1 |
| 20260504082004 | 51 | 222 | 4.3 | 5.2 | 0.00 | 0.01 | 0.00 | 66 | 1010.0 |
| 20260504081004 | 52 | 211 | 2.6 | 10.4 | 0.00 | 0.01 | 0.00 | 65 | 1010.0 |
| 20260504080504 | 51 | 210 | 2.6 | 7.8 | 0.00 | 0.01 | 0.00 | 65 | 1010.1 |
| 20260504050503 | 53 | 218 | 2.6 | 5.2 | 0.00 | 0.01 | 0.00 | 62 | 1012.0 |
| 20260504050004 | 53 | 208 | 3.5 | 6.1 | 0.00 | 0.01 | 0.00 | 63 | 1012.0 |
| 20260504045504 | 53 | 213 | 4.3 | 7.8 | 0.00 | 0.01 | 0.00 | 63 | 1012.0 |
| 20260504045004 | 53 | 227 | 2.6 | 5.2 | 0.00 | 0.01 | 0.00 | 63 | 1012.1 |
| 20260504044504 | 53 | 219 | 3.5 | 5.2 | 0.00 | 0.01 | 0.00 | 64 | 1012.1 |
| 20260504044004 | 53 | 208 | 2.6 | 5.2 | 0.00 | 0.01 | 0.00 | 64 | 1012.0 |
| 20260504043004 | 52 | 223 | 2.6 | 7.8 | 0.00 | 0.01 | 0.00 | 64 | 1012.1 |
| 20260504042504 | 52 | 211 | 1.7 | 4.3 | 0.00 | 0.01 | 0.00 | 65 | 1012.2 |
| 20260504042004 | 52 | 200 | 2.6 | 5.2 | 0.00 | 0.01 | 0.00 | 65 | 1012.3 |
| 20260504041504 | 52 | 220 | 1.7 | 5.2 | 0.00 | 0.01 | 0.00 | 65 | 1012.4 |
| 20260504040504 | 52 | 204 | 2.6 | 5.2 | 0.00 | 0.01 | 0.00 | 66 | 1012.4 |
| 20260504040004 | 52 | 196 | 2.6 | 5.2 | 0.00 | 0.01 | 0.00 | 66 | 1012.5 |
| 20260504035504 | 52 | 198 | 2.6 | 5.2 | 0.00 | 0.01 | 0.01 | 67 | 1012.5 |
| 20260504035003 | 52 | 204 | 2.6 | 5.2 | 0.00 | 0.01 | 0.01 | 67 | 1012.6 |
| 20260504034504 | 52 | 194 | 1.7 | 4.3 | 0.00 | 0.01 | 0.01 | 67 | 1012.6 |
| 20260504034004 | 52 | 185 | 2.6 | 5.2 | 0.00 | 0.01 | 0.01 | 67 | 1012.7 |
| 20260504033504 | 51 | 178 | 2.6 | 4.3 | 0.00 | 0.01 | 0.01 | 68 | 1012.8 |
| 20260504033004 | 51 | 189 | 1.7 | 4.3 | 0.00 | 0.01 | 0.01 | 67 | 1012.8 |
| 20260504032504 | 51 | 183 | 2.6 | 5.2 | 0.00 | 0.01 | 0.01 | 67 | 1012.9 |
| 20260504032004 | 51 | 198 | 2.6 | 5.2 | 0.00 | 0.01 | 0.01 | 67 | 1012.9 |
| 20260504031503 | 51 | 202 | 1.7 | 6.1 | 0.00 | 0.01 | 0.01 | 67 | 1012.9 |
| 20260504031004 | 51 | 187 | 2.6 | 5.2 | 0.00 | 0.01 | 0.01 | 67 | 1013.0 |
| 20260504030505 | 51 | 196 | 2.6 | 5.2 | 0.00 | 0.01 | 0.01 | 67 | 1013.1 |
| 20260504025505 | 51 | 197 | 2.6 | 5.2 | 0.00 | 0.01 | 0.01 | 67 | 1013.1 |
| 20260504025005 | 51 | 206 | 2.6 | 5.2 | 0.00 | 0.01 | 0.01 | 67 | 1013.2 |
| 20260504024505 | 51 | 198 | 2.6 | 5.2 | 0.00 | 0.01 | 0.01 | 68 | 1013.2 |
| 20260504024004 | 51 | 209 | 1.7 | 4.3 | 0.00 | 0.01 | 0.01 | 69 | 1013.2 |
| 20260504023505 | 51 | 185 | 1.7 | 4.3 | 0.00 | 0.01 | 0.01 | 68 | 1013.2 |
| 20260504022505 | 51 | 164 | 3.5 | 6.1 | 0.00 | 0.01 | 0.01 | 69 | 1013.2 |
| 20260504021504 | 50 | 173 | 2.6 | 5.2 | 0.00 | 0.01 | 0.01 | 70 | 1013.2 |
| 20260504021005 | 50 | 190 | 1.7 | 5.2 | 0.00 | 0.01 | 0.01 | 71 | 1013.3 |
| 20260504020504 | 50 | 183 | 3.5 | 7.0 | 0.00 | 0.01 | 0.01 | 71 | 1013.4 |
| 20260504020005 | 50 | 223 | 1.7 | 4.3 | 0.00 | 0.01 | 0.01 | 72 | 1013.4 |
| 20260504015505 | 50 | 173 | 2.6 | 6.1 | 0.00 | 0.01 | 0.01 | 73 | 1013.3 |
| 20260504015005 | 50 | 166 | 2.6 | 5.2 | 0.00 | 0.01 | 0.01 | 73 | 1013.3 |
| 20260504014505 | 50 | 183 | 2.6 | 5.2 | 0.00 | 0.01 | 0.01 | 74 | 1013.3 |
| 20260504014004 | 49 | 163 | 1.7 | 5.2 | 0.00 | 0.01 | 0.01 | 76 | 1013.3 |
| 20260504013505 | 49 | 171 | 0.9 | 4.3 | 0.00 | 0.01 | 0.01 | 77 | 1013.3 |
| 20260504013005 | 49 | 161 | 0.9 | 1.7 | 0.00 | 0.01 | 0.01 | 77 | 1013.3 |
| 20260504012504 | 49 | 171 | 1.7 | 2.6 | 0.00 | 0.01 | 0.01 | 77 | 1013.3 |
| 20260504012005 | 49 | 167 | 0.9 | 1.7 | 0.00 | 0.01 | 0.01 | 78 | 1013.4 |
| 20260504011505 | 49 | 192 | 1.7 | 2.6 | 0.00 | 0.01 | 0.01 | 78 | 1013.3 |
| 20260504011005 | 49 | 178 | 0.0 | 0.0 | 0.00 | 0.01 | 0.01 | 78 | 1013.5 |
| 20260504010505 | 49 | 174 | 0.0 | 0.0 | 0.00 | 0.01 | 0.01 | 78 | 1013.5 |
| 20260504010005 | 49 | 182 | 0.9 | 2.6 | 0.00 | 0.01 | 0.01 | 78 | 1013.4 |
| 20260504005504 | 49 | 122 | 0.9 | 1.7 | 0.00 | 0.01 | 0.01 | 78 | 1013.3 |
| 20260504005005 | 49 | 142 | 0.9 | 1.7 | 0.00 | 0.01 | 0.01 | 78 | 1013.4 |
| 20260504004504 | 49 | 144 | 0.9 | 4.3 | 0.00 | 0.01 | 0.01 | 77 | 1013.3 |
| 20260504004004 | 49 | 142 | 1.7 | 4.3 | 0.00 | 0.01 | 0.01 | 77 | 1013.3 |
| 20260504003504 | 49 | 161 | 1.7 | 4.3 | 0.00 | 0.01 | 0.01 | 78 | 1013.5 |
| 20260504002505 | 49 | 100 | 0.9 | 2.6 | 0.00 | 0.01 | 0.01 | 79 | 1013.4 |
| 20260504001505 | 50 | 149 | 0.9 | 1.7 | 0.00 | 0.01 | 0.01 | 78 | 1013.8 |
| 20260504001005 | 50 | 199 | 0.0 | 0.9 | 0.00 | 0.01 | 0.01 | 78 | 1013.7 |
| 20260504000504 | 50 | 135 | 0.0 | 0.9 | 0.00 | 0.01 | 0.01 | 77 | 1013.6 |
| 20260504000004 | 50 | 131 | 1.7 | 4.3 | 0.00 | 0.01 | 0.01 | 77 | 1013.6 |
| 20260503235505 | 50 | 166 | 1.7 | 2.6 | 0.00 | 0.01 | 0.01 | 78 | 1013.6 |
| 20260503235004 | 50 | 131 | 1.7 | 4.3 | 0.00 | 0.01 | 0.01 | 78 | 1013.6 |
| 20260503234504 | 50 | 146 | 1.7 | 4.3 | 0.00 | 0.01 | 0.01 | 78 | 1013.4 |
| 20260503234005 | 50 | 130 | 1.7 | 5.2 | 0.00 | 0.01 | 0.01 | 78 | 1013.5 |
| 20260503233505 | 50 | 126 | 0.9 | 4.3 | 0.00 | 0.01 | 0.01 | 79 | 1013.6 |
| 20260503233004 | 50 | 144 | 1.7 | 2.6 | 0.01 | 0.01 | 0.01 | 79 | 1013.7 |
| 20260503232504 | 50 | 139 | 0.9 | 4.3 | 0.01 | 0.01 | 0.01 | 80 | 1013.7 |
| 20260503231505 | 49 | 135 | 0.9 | 2.6 | 0.01 | 0.01 | 0.01 | 80 | 1013.8 |
| 20260503231004 | 49 | 131 | 1.7 | 4.3 | 0.01 | 0.01 | 0.01 | 80 | 1013.9 |
| 20260503230504 | 49 | 142 | 0.9 | 2.6 | 0.01 | 0.01 | 0.01 | 80 | 1014.0 |
| 20260503230004 | 49 | 147 | 0.0 | 0.0 | 0.01 | 0.01 | 0.01 | 80 | 1014.1 |
| 20260503225504 | 49 | 120 | 0.0 | 0.0 | 0.01 | 0.01 | 0.01 | 80 | 1014.2 |
| 20260503225004 | 49 | 104 | 0.9 | 4.3 | 0.01 | 0.01 | 0.01 | 80 | 1014.3 |
| 20260503224505 | 49 | 132 | 0.9 | 2.6 | 0.01 | 0.01 | 0.01 | 78 | 1014.5 |
| 20260503224004 | 49 | 109 | 0.0 | 1.7 | 0.01 | 0.01 | 0.01 | 77 | 1014.8 |
| 20260503223505 | 49 | 164 | 0.9 | 1.7 | 0.01 | 0.01 | 0.01 | 77 | 1015.2 |
| 20260503223004 | 49 | 209 | 0.0 | 2.6 | 0.00 | 0.00 | 0.00 | 77 | 1015.6 |
| 20260503222504 | 50 | 263 | 1.7 | 5.2 | 0.00 | 0.00 | 0.00 | 75 | 1015.7 |
| 20260503222005 | 50 | 259 | 2.6 | 5.2 | 0.00 | 0.00 | 0.00 | 73 | 1015.8 |
| 20260503221505 | 51 | 244 | 4.3 | 11.3 | 0.00 | 0.00 | 0.00 | 70 | 1015.8 |
| 20260503221005 | 51 | 241 | 4.3 | 10.4 | 0.00 | 0.00 | 0.00 | 67 | 1015.8 |
| 20260503220505 | 53 | 294 | 6.1 | 14.8 | 0.00 | 0.00 | 0.00 | 64 | 1015.7 |
| 20260503220005 | 54 | 236 | 2.6 | 14.8 | 0.00 | 0.00 | 0.00 | 59 | 1015.5 |
| 20260503215504 | 55 | 248 | 5.2 | 15.6 | 0.00 | 0.00 | 0.00 | 55 | 1015.5 |
| 20260503215005 | 55 | 250 | 4.3 | 12.2 | 0.00 | 0.00 | 0.00 | 53 | 1015.2 |
| 20260503214504 | 55 | 237 | 8.7 | 15.6 | 0.00 | 0.00 | 0.00 | 49 | 1015.0 |
| 20260503214004 | 56 | 261 | 5.2 | 17.4 | 0.00 | 0.00 | 0.00 | 48 | 1015.0 |
| 20260503213505 | 57 | 223 | 5.2 | 19.1 | 0.00 | 0.00 | 0.00 | 46 | 1014.9 |
| 20260503213004 | 58 | 323 | 6.1 | 15.6 | 0.00 | 0.00 | 0.00 | 42 | 1014.8 |
| 20260503212005 | 59 | 283 | 5.2 | 8.7 | 0.00 | 0.00 | 0.00 | 40 | 1014.7 |
| 20260503211504 | 59 | 244 | 4.3 | 10.4 | 0.00 | 0.00 | 0.00 | 40 | 1014.6 |
| 20260503211004 | 59 | 231 | 4.3 | 12.2 | 0.00 | 0.00 | 0.00 | 40 | 1014.7 |
| 20260503210504 | 59 | 262 | 6.1 | 13.0 | 0.00 | 0.00 | 0.00 | 40 | 1014.7 |
| 20260503210005 | 59 | 240 | 8.7 | 15.6 | 0.00 | 0.00 | 0.00 | 39 | 1014.7 |
| 20260503205504 | 59 | 240 | 5.2 | 8.7 | 0.00 | 0.00 | 0.00 | 39 | 1014.7 |
| 20260503205004 | 59 | 243 | 4.3 | 13.9 | 0.00 | 0.00 | 0.00 | 39 | 1014.8 |
| 20260503204504 | 59 | 228 | 9.6 | 15.6 | 0.00 | 0.00 | 0.00 | 38 | 1014.9 |
| 20260503204004 | 60 | 244 | 7.0 | 14.8 | 0.00 | 0.00 | 0.00 | 38 | 1015.0 |
| 20260503203004 | 60 | 181 | 2.6 | 7.0 | 0.00 | 0.00 | 0.00 | 40 | 1015.1 |
| 20260503202504 | 60 | 225 | 7.0 | 15.6 | 0.00 | 0.00 | 0.00 | 37 | 1015.0 |
| 20260503202004 | 61 | 227 | 6.1 | 14.8 | 0.00 | 0.00 | 0.00 | 37 | 1015.1 |
| 20260503201504 | 61 | 252 | 2.6 | 18.2 | 0.00 | 0.00 | 0.00 | 38 | 1015.2 |
| 20260503201004 | 61 | 220 | 5.2 | 18.2 | 0.00 | 0.00 | 0.00 | 36 | 1015.1 |
| 20260503200504 | 62 | 257 | 2.6 | 5.2 | 0.00 | 0.00 | 0.00 | 38 | 1015.1 |
| 20260503195504 | 61 | 216 | 6.1 | 13.0 | 0.00 | 0.00 | 0.00 | 36 | 1015.3 |
| 20260503195005 | 61 | 228 | 2.6 | 17.4 | 0.00 | 0.00 | 0.00 | 37 | 1015.2 |
| 20260503194504 | 62 | 224 | 4.3 | 12.2 | 0.00 | 0.00 | 0.00 | 37 | 1015.3 |
| 20260503194005 | 62 | 254 | 5.2 | 11.3 | 0.00 | 0.00 | 0.00 | 36 | 1015.4 |
| 20260503193505 | 61 | 245 | 4.3 | 12.2 | 0.00 | 0.00 | 0.00 | 38 | 1015.5 |
| 20260503193004 | 62 | 276 | 4.3 | 13.0 | 0.00 | 0.00 | 0.00 | 36 | 1015.6 |
| 20260503192504 | 62 | 251 | 2.6 | 10.4 | 0.00 | 0.00 | 0.00 | 35 | 1015.8 |
| 20260503191504 | 61 | 219 | 4.3 | 11.3 | 0.00 | 0.00 | 0.00 | 38 | 1015.7 |
| 20260503191004 | 61 | 213 | 7.0 | 13.0 | 0.00 | 0.00 | 0.00 | 37 | 1015.9 |
| 20260503190504 | 61 | 257 | 6.1 | 13.0 | 0.00 | 0.00 | 0.00 | 35 | 1016.0 |
| 20260503190004 | 62 | 221 | 5.2 | 10.4 | 0.00 | 0.00 | 0.00 | 36 | 1016.0 |
| 20260503185504 | 61 | 238 | 4.3 | 14.8 | 0.00 | 0.00 | 0.00 | 36 | 1016.2 |